STARLINK-11611, 63138

Orbit data source: Space-Track

STARLINK-11611, 63138 is a payload satellite owned by SpaceX/Seattle (US) in LEO that was launched on Mon, 03 Mar 2025 UTC via an FALCON 9 launch vehicle from the Air Force Eastern Test Range (AFETR). Payload-class satellites include a variety of spacecraft equipped with specific instruments for various scientific and technological missions. These include communications satellites like Starlink; space stations such as the ISS; scientific satellites like the Hubble; Earth observation satellites from companies like Planet Labs, Umbra, and HawkEye 360; GPS; miniature CubeSats for education and research; and military/defense satellites.

Loading next visibility...
Identifier
63138, 2025-043G
Orbit
LEO
Last TLE update
22 hours ago
Origin
Manufacturer
SpaceX/Seattle
Mission
Operational Commercial Communications
Bus & Motor
STARLINK V2M, Unknown motor
Mass
730 kg wet, ~700 kg dry
Launch date (UTC)
2025-03-03 (4 months ago)
Launch vehicle
FALCON 9
Launch site
Air Force Eastern Test Range (AFETR)
Object type
Payload
Rocket body
Debris
Shape & HBR
Box + 2 Pan, 29 m
Radar Cross Section
36.964 m², Large (>1 m²)

Expand to show TLE details & history

TLE from 22 hours ago
0 STARLINK-11611
1 63138U 25043G   25169.37591818  .00190872  00000-0  14549-2 0  9992
2 63138  43.0011  43.8051 0001613 270.4309  89.6374 15.70876040 17901
Epoch: 2025-06-18T09:01Z
TLE epoch observation values (Epoch: 2025-06-18T09:01:19.33Z)
Latitude
-0.00002°
Longitude
1.61569°
Altitude
356.157 km
Speed
7.697 km/s
True Right ascension
02h 55m 13s
True Declination
0° 00' 00"
Sunlit
Object was in daylight at epoch
Visualization orbit readout
Latitude
8.50886°
Longitude
166.88873°
Altitude
354.811 km
Speed
7.699 km/s
Apparent Right ascension
10h 55m 23s
Apparent Declination
-27° 17' 02"
Sunlit
Object is in full shadow
Visualization observer readout
Local Sidereal Time
17:56:08
Azimuth
256.735° W
Elevation
-28.21°
Doppler factor
1
Orbital elements
Apogee altitude
359.46 km
Perigee altitude
357.287 km
Semi-major axis
6,736.51 km
Eccentricity
0.00016
Inclination
43.0011°
RAAN
43.8051°
Arg. of periapsis
270.4309°
True anomaly
Unknown
Mean anomaly
89.6374°
Eccentric anomaly
Unknown
Mean motion
3.92546 °/min
Orbital period
91.71 mins
BSTAR
0.0014549
Loading maneuver chart data...
Loading SW <> Apogee altitude chart data...
Loading historical data...
Loading historical data...
Loading historical data...
Loading historical data...
Loading historical data...
Loading historical data...
Loading historical data...

STARLINK-11611 Visibility forecast

Observer location: undefined°, undefined°

Span
Click to sort rows by Start time (UTC) header in descending order
Start Az.
Max El. time (UTC)
Max El. Az.
Max El.
End time (UTC)
End Az.
4 mins2025-06-19 18:48:33.003Z217.951° SW2025-06-19 18:50:33.003Z160.308° S31.478°2025-06-19 18:52:33.003Z90.831° ESE
4 mins2025-06-19 20:25:33.003Z285.296° WNW2025-06-19 20:26:33.003Z334.358° NNW38.788°2025-06-19 20:29:33.003Z68.633° E
4 mins2025-06-19 22:01:33.003Z303.155° NW2025-06-19 22:02:33.003Z334.711° NNW33.86°2025-06-19 22:05:33.003Z81.337° E
4 mins2025-06-19 23:37:33.003Z274.89° WNW2025-06-19 23:39:33.003Z164.88° S37.176°2025-06-19 23:41:33.003Z126.122° SE
|